Location: Unspecified
(45.3247°N, 0.0000°E)
Time: 21:40:29
(UTC+00:00)

CAS-6 - Visible Passes

Search period start: 04 April 2026 00:00
Search period end: 14 April 2026 00:00
Orbit: 600 x 619 km, 97.8° (Epoch: 29 March)

Date Brightness Start Highest point End Pass type
(mag) Time Alt. Az. Time Alt. Az. Time Alt. Az.
4 Apr ? 21:11:23 25° NNE 21:11:23 25° NNE 21:13:42 10° N visible
4 Apr ? 22:48:19 15° NW 22:48:19 15° NW 22:49:18 10° NW visible
5 Apr ? 21:25:22 30° NNE 21:25:22 30° NNE 21:27:49 10° N visible
5 Apr ? 23:02:17 12° NW 23:02:17 12° NW 23:02:46 10° NW visible
6 Apr ? 21:39:20 34° N 21:39:20 34° N 21:41:50 10° N visible
7 Apr ? 20:16:23 11° ENE 20:16:23 11° ENE 20:17:17 10° NE visible
7 Apr ? 21:53:19 34° NNW 21:53:19 34° NNW 21:55:48 10° NNW visible
8 Apr ? 20:30:21 14° NE 20:30:21 14° NE 20:32:22 10° NNE visible
8 Apr ? 22:07:17 32° NNW 22:07:17 32° NNW 22:09:42 10° NNW visible
9 Apr ? 20:44:20 19° NE 20:44:20 19° NE 20:46:51 10° NNE visible
9 Apr ? 22:21:16 27° NW 22:21:16 27° NW 22:23:31 10° NNW visible
10 Apr ? 20:58:18 24° NE 20:58:18 24° NE 21:01:08 10° N visible
10 Apr ? 22:35:15 22° NW 22:35:15 22° NW 22:37:14 10° NNW visible
11 Apr ? 21:12:17 31° NE 21:12:17 31° NE 21:15:19 10° N visible
11 Apr ? 22:49:12 18° WNW 22:49:12 18° WNW 22:50:50 10° NW visible
12 Apr ? 21:26:15 40° NNE 21:26:15 40° NNE 21:29:24 10° N visible
12 Apr ? 23:03:11 14° WNW 23:03:11 14° WNW 23:04:15 10° NW visible
13 Apr ? 21:40:13 47° N 21:40:13 47° N 21:43:25 10° N visible
13 Apr ? 23:17:09 10° WNW 23:17:09 10° WNW 23:17:14 10° WNW visible
